20040127,000003,1832225,37.389833,-124.102167,12.650,32.767,NaN,NaN
20040127,000033,1832255,37.389167,-124.103500,12.651,32.767,NaN,NaN
20040127,000103,1832285,37.388333,-124.105000,12.652,32.766,NaN,NaN
20040127,000133,1832315,37.387667,-124.106500,12.655,32.764,NaN,NaN
20040127,000203,1832345,37.387000,-124.107833,12.654,32.765,NaN,NaN
20040127,000233,1832375,37.386167,-124.109333,12.655,32.763,NaN,NaN
20040127,000303,1832405,37.385500,-124.110667,12.656,32.762,NaN,NaN
20040127,000333,1832435,37.384667,-124.112167,12.655,32.761,NaN,NaN
20040127,000403,1832465,37.384000,-124.113500,12.656,32.760,NaN,NaN
20040127,000433,1832495,37.383167,-124.115000,12.656,32.759,NaN,NaN
20040127,000503,1832525,37.382500,-124.116333,12.658,32.757,NaN,NaN
20040127,000533,1832555,37.381667,-124.117833,12.658,32.757,NaN,NaN
20040127,000603,1832585,37.381000,-124.119167,12.659,32.757,NaN,NaN
20040127,000633,1832615,37.380167,-124.120667,12.661,32.755,NaN,NaN
20040127,000703,1832645,37.379500,-124.122000,12.662,32.754,NaN,NaN
20040127,000733,1832675,37.378667,-124.123500,12.662,32.754,NaN,NaN
20040127,000803,1832705,37.378000,-124.124833,12.663,32.752,NaN,NaN
20040127,000833,1832735,37.377333,-124.126167,12.665,32.751,NaN,NaN
20040127,000903,1832765,37.376500,-124.127667,12.665,32.751,NaN,NaN
20040127,000933,1832795,37.375833,-124.129000,12.667,32.749,NaN,NaN
20040127,001003,1832825,37.375000,-124.130500,12.666,32.750,NaN,NaN
20040127,001033,1832855,37.374333,-124.132000,12.667,32.748,NaN,NaN
20040127,001103,1832885,37.373667,-124.133333,12.667,32.747,NaN,NaN
20040127,001133,1832915,37.372833,-124.134833,12.667,32.744,NaN,NaN
20040127,001203,1832945,37.372167,-124.136167,12.667,32.743,NaN,NaN
20040127,001233,1832975,37.371333,-124.137667,12.667,32.742,NaN,NaN
20040127,001303,1833005,37.370667,-124.139000,12.667,32.742,NaN,NaN
20040127,001333,1833035,37.370000,-124.140500,12.667,32.742,NaN,NaN
20040127,001403,1833065,37.369167,-124.141833,12.669,32.741,NaN,NaN
20040127,001433,1833095,37.368333,-124.143333,12.670,32.739,NaN,NaN
20040127,001503,1833125,37.367667,-124.144833,12.670,32.741,NaN,NaN
20040127,001533,1833155,37.367000,-124.146167,12.671,32.741,NaN,NaN
20040127,001603,1833185,37.366167,-124.147667,12.671,32.741,NaN,NaN
20040127,001633,1833215,37.365500,-124.149167,12.671,32.742,NaN,NaN
20040127,001703,1833245,37.364833,-124.150500,12.672,32.741,NaN,NaN
20040127,001733,1833275,37.364000,-124.152000,12.672,32.741,NaN,NaN
20040127,001803,1833305,37.363333,-124.153500,12.670,32.743,NaN,NaN
20040127,001833,1833335,37.362667,-124.154833,12.669,32.741,NaN,NaN
20040127,001903,1833365,37.361833,-124.156333,12.669,32.741,NaN,NaN
20040127,001933,1833395,37.361167,-124.157833,12.668,32.740,NaN,NaN
20040127,002003,1833425,37.360333,-124.159167,12.667,32.740,NaN,NaN
20040127,002033,1833455,37.359667,-124.160667,12.667,32.740,NaN,NaN
20040127,002103,1833485,37.359000,-124.162167,12.665,32.740,NaN,NaN
20040127,002133,1833515,37.358167,-124.163500,12.664,32.740,NaN,NaN
20040127,002203,1833545,37.357500,-124.165000,12.664,32.741,NaN,NaN
20040127,002233,1833575,37.356833,-124.166500,12.663,32.740,NaN,NaN
20040127,002303,1833605,37.356000,-124.167833,12.663,32.740,NaN,NaN
20040127,002333,1833635,37.355333,-124.169333,12.662,32.741,NaN,NaN
20040127,002403,1833665,37.354667,-124.170833,12.661,32.740,NaN,NaN
20040127,002433,1833695,37.353833,-124.172333,12.661,32.741,NaN,NaN
20040127,002503,1833725,37.353167,-124.173667,12.660,32.741,NaN,NaN
20040127,002533,1833755,37.352500,-124.175167,12.661,32.741,NaN,NaN
20040127,002603,1833785,37.351667,-124.176667,12.660,32.742,NaN,NaN
20040127,002633,1833815,37.351000,-124.178000,12.661,32.740,NaN,NaN
20040127,002703,1833845,37.350167,-124.179500,12.660,32.741,NaN,NaN
20040127,002733,1833875,37.349500,-124.181000,12.660,32.740,NaN,NaN
20040127,002803,1833905,37.348833,-124.182500,12.658,32.742,NaN,NaN
20040127,002833,1833935,37.348167,-124.183833,12.659,32.740,NaN,NaN
20040127,002903,1833965,37.347333,-124.185333,12.658,32.740,NaN,NaN
20040127,002933,1833995,37.346667,-124.186833,12.656,32.740,NaN,NaN
20040127,003003,1834025,37.345833,-124.188167,12.656,32.739,NaN,NaN
20040127,003033,1834055,37.345167,-124.189667,12.655,32.740,NaN,NaN
20040127,003103,1834085,37.344500,-124.191167,12.656,32.739,NaN,NaN
20040127,003133,1834115,37.343833,-124.192667,12.656,32.740,NaN,NaN
20040127,003203,1834145,37.343000,-124.194000,12.656,32.740,NaN,NaN
20040127,003233,1834175,37.342333,-124.195500,12.654,32.741,NaN,NaN
20040127,003303,1834205,37.341667,-124.197000,12.655,32.740,NaN,NaN
20040127,003333,1834235,37.340833,-124.198500,12.654,32.740,NaN,NaN
20040127,003403,1834265,37.340167,-124.200000,12.653,32.740,NaN,NaN
20040127,003433,1834295,37.339500,-124.201333,12.653,32.741,NaN,NaN
20040127,003503,1834325,37.338833,-124.202833,12.651,32.741,NaN,NaN
20040127,003533,1834355,37.338000,-124.204333,12.651,32.741,NaN,NaN
20040127,003603,1834385,37.337333,-124.205833,12.651,32.742,NaN,NaN
20040127,003633,1834415,37.336667,-124.207333,12.650,32.742,NaN,NaN
20040127,003703,1834445,37.336000,-124.208833,12.650,32.742,NaN,NaN
20040127,003733,1834475,37.335167,-124.210167,12.650,32.742,NaN,NaN
20040127,003803,1834505,37.334500,-124.211667,12.649,32.741,NaN,NaN
20040127,003833,1834535,37.333833,-124.213167,12.649,32.742,NaN,NaN
20040127,003903,1834565,37.333167,-124.214667,12.649,32.742,NaN,NaN
20040127,003933,1834595,37.332500,-124.216167,12.648,32.742,NaN,NaN
20040127,004003,1834625,37.331833,-124.217667,12.648,32.742,NaN,NaN
20040127,004033,1834655,37.331167,-124.219167,12.646,32.742,NaN,NaN
20040127,004103,1834685,37.330500,-124.220667,12.646,32.742,NaN,NaN
20040127,004133,1834715,37.329667,-124.222000,12.646,32.742,NaN,NaN
20040127,004203,1834745,37.329000,-124.223500,12.644,32.742,NaN,NaN
20040127,004233,1834775,37.328333,-124.225000,12.646,32.742,NaN,NaN
20040127,004303,1834805,37.327667,-124.226500,12.646,32.742,NaN,NaN
20040127,004333,1834835,37.327000,-124.228000,12.646,32.743,NaN,NaN
20040127,004403,1834865,37.326333,-124.229500,12.645,32.743,NaN,NaN
20040127,004433,1834895,37.325667,-124.231000,12.644,32.743,NaN,NaN
20040127,004503,1834925,37.325000,-124.232500,12.644,32.742,NaN,NaN
20040127,004533,1834955,37.324333,-124.234000,12.644,32.741,NaN,NaN
20040127,004603,1834985,37.323667,-124.235500,12.644,32.742,NaN,NaN
20040127,004633,1835015,37.323000,-124.237000,12.643,32.742,NaN,NaN
20040127,004703,1835045,37.322333,-124.238500,12.642,32.742,NaN,NaN
20040127,004733,1835075,37.321667,-124.240000,12.640,32.743,NaN,NaN
20040127,004803,1835105,37.321000,-124.241500,12.639,32.744,NaN,NaN
20040127,004833,1835135,37.320333,-124.243000,12.638,32.745,NaN,NaN
20040127,004903,1835165,37.319667,-124.244333,12.635,32.745,NaN,NaN
20040127,004933,1835195,37.319000,-124.245833,12.634,32.745,NaN,NaN
20040127,005003,1835225,37.318333,-124.247333,12.631,32.747,NaN,NaN
20040127,005033,1835255,37.317667,-124.248833,12.629,32.748,NaN,NaN
20040127,005103,1835285,37.317000,-124.250333,12.626,32.749,NaN,NaN
20040127,005133,1835315,37.316333,-124.251833,12.622,32.750,NaN,NaN
20040127,005203,1835345,37.315667,-124.253333,12.619,32.751,NaN,NaN
20040127,005233,1835375,37.315000,-124.254833,12.615,32.752,NaN,NaN
20040127,005303,1835405,37.314500,-124.256333,12.606,32.730,NaN,NaN
20040127,005333,1835435,37.313833,-124.257667,12.602,32.701,NaN,NaN
20040127,005403,1835465,37.313000,-124.259167,12.602,32.696,NaN,NaN
20040127,005433,1835495,37.312333,-124.260500,12.604,32.683,NaN,NaN
20040127,005503,1835525,37.311667,-124.262000,12.604,32.682,NaN,NaN
20040127,005533,1835555,37.311167,-124.263333,12.605,32.677,NaN,NaN
20040127,005603,1835585,37.310500,-124.264833,12.607,32.672,NaN,NaN
20040127,005633,1835615,37.309833,-124.266333,12.610,32.667,NaN,NaN
20040127,005703,1835645,37.309000,-124.267667,12.611,32.663,NaN,NaN
20040127,005733,1835675,37.308500,-124.269167,12.614,32.658,NaN,NaN
20040127,005803,1835705,37.307833,-124.270667,12.618,32.651,NaN,NaN
20040127,005833,1835735,37.307000,-124.272167,12.623,32.646,NaN,NaN
20040127,005903,1835765,37.306333,-124.273500,12.627,32.644,NaN,NaN
20040127,005933,1835795,37.305667,-124.275000,12.629,32.644,NaN,NaN
20040127,010003,1835825,37.305167,-124.276500,12.629,32.646,NaN,NaN
20040127,010033,1835855,37.304333,-124.277833,12.629,32.648,NaN,NaN
20040127,010103,1835885,37.303667,-124.279333,12.627,32.653,NaN,NaN
20040127,010133,1835915,37.303000,-124.280833,12.621,32.663,NaN,NaN
20040127,010203,1835945,37.302333,-124.282167,12.618,32.671,NaN,NaN
20040127,010233,1835975,37.301833,-124.283667,12.608,32.682,NaN,NaN
20040127,010303,1836005,37.301167,-124.285167,12.592,32.687,NaN,NaN
20040127,010333,1836035,37.300500,-124.286667,12.578,32.693,NaN,NaN
20040127,010403,1836065,37.299833,-124.288167,12.554,32.696,NaN,NaN
20040127,010433,1836095,37.299167,-124.289500,12.517,32.696,NaN,NaN
20040127,010503,1836125,37.298500,-124.291000,12.495,32.695,NaN,NaN
20040127,010533,1836155,37.298000,-124.292500,12.482,32.698,NaN,NaN
20040127,010603,1836185,37.297167,-124.294000,12.479,32.699,NaN,NaN
20040127,010633,1836215,37.296500,-124.295333,12.480,32.699,NaN,NaN
20040127,010703,1836245,37.296000,-124.296833,12.481,32.697,NaN,NaN
20040127,010733,1836275,37.295333,-124.298333,12.482,32.696,NaN,NaN
20040127,010803,1836305,37.294667,-124.299833,12.483,32.694,NaN,NaN
20040127,010833,1836335,37.294000,-124.301167,12.481,32.695,NaN,NaN
20040127,010903,1836365,37.293333,-124.302667,12.482,32.692,NaN,NaN
20040127,010933,1836395,37.292667,-124.304167,12.481,32.693,NaN,NaN
20040127,011003,1836425,37.292000,-124.305500,12.479,32.691,NaN,NaN
20040127,011033,1836455,37.291333,-124.307000,12.491,32.689,NaN,NaN
20040127,011103,1836485,37.290667,-124.308500,12.504,32.689,NaN,NaN
20040127,011133,1836515,37.290000,-124.310000,12.511,32.685,NaN,NaN
20040127,011203,1836545,37.289333,-124.311500,12.517,32.680,NaN,NaN
20040127,011233,1836575,37.288667,-124.312833,12.519,32.678,NaN,NaN
20040127,011303,1836605,37.288000,-124.314333,12.521,32.677,NaN,NaN
20040127,011333,1836635,37.287333,-124.315833,12.522,32.673,NaN,NaN
20040127,011403,1836665,37.286667,-124.317333,12.524,32.672,NaN,NaN
20040127,011433,1836695,37.286000,-124.318667,12.525,32.671,NaN,NaN
20040127,011503,1836725,37.285333,-124.320167,12.526,32.671,NaN,NaN
20040127,011533,1836755,37.284667,-124.321667,12.528,32.670,NaN,NaN
20040127,011603,1836785,37.284000,-124.323000,12.528,32.670,NaN,NaN
20040127,011633,1836815,37.283333,-124.324500,12.529,32.670,NaN,NaN
20040127,011703,1836845,37.282500,-124.325833,12.530,32.670,NaN,NaN
20040127,011733,1836875,37.281833,-124.327333,12.531,32.671,NaN,NaN
20040127,011803,1836905,37.281167,-124.328667,12.531,32.671,NaN,NaN
20040127,011833,1836935,37.280500,-124.330000,12.529,32.671,NaN,NaN
20040127,011903,1836965,37.279833,-124.330500,12.528,32.671,NaN,NaN
20040127,011933,1836995,37.279333,-124.330833,12.527,32.672,NaN,NaN
20040127,012003,1837025,37.279000,-124.331000,12.527,32.671,NaN,NaN
20040127,012033,1837055,37.278833,-124.331000,12.527,32.673,NaN,NaN
20040127,012103,1837085,37.278500,-124.331167,12.526,32.674,NaN,NaN
20040127,012133,1837115,37.278333,-124.331167,12.524,32.673,NaN,NaN
20040127,012203,1837145,37.278333,-124.331167,12.523,32.673,NaN,NaN
20040127,012233,1837175,37.278333,-124.331500,12.526,32.672,NaN,NaN
20040127,012303,1837205,37.278333,-124.331667,12.526,32.673,NaN,NaN
20040127,012333,1837235,37.278333,-124.331833,12.527,32.673,NaN,NaN
20040127,012403,1837265,37.278333,-124.332000,12.525,32.673,NaN,NaN
20040127,012433,1837295,37.278333,-124.332000,12.525,32.673,NaN,NaN
20040127,012503,1837325,37.278333,-124.332167,12.527,32.673,NaN,NaN
20040127,012533,1837355,37.278333,-124.332333,12.525,32.673,NaN,NaN
20040127,012603,1837385,37.278500,-124.332500,12.524,32.673,NaN,NaN
20040127,012633,1837415,37.278500,-124.332833,12.525,32.673,NaN,NaN
20040127,012703,1837445,37.278500,-124.333000,12.527,32.673,NaN,NaN
20040127,012733,1837475,37.278667,-124.333000,12.527,32.674,NaN,NaN
20040127,012803,1837505,37.278667,-124.333167,12.524,32.673,NaN,NaN
20040127,012833,1837535,37.278667,-124.333500,12.522,32.673,NaN,NaN
20040127,012903,1837565,37.278667,-124.333667,12.523,32.673,NaN,NaN
20040127,012933,1837595,37.278667,-124.333833,12.523,32.672,NaN,NaN
20040127,013003,1837625,37.278667,-124.334000,12.523,32.672,NaN,NaN
20040127,013033,1837655,37.278833,-124.334000,12.523,32.672,NaN,NaN
20040127,013103,1837685,37.278833,-124.334333,12.521,32.673,NaN,NaN
20040127,013133,1837715,37.279000,-124.334500,12.522,32.671,NaN,NaN
20040127,013203,1837745,37.279000,-124.334833,12.523,32.671,NaN,NaN
20040127,013233,1837775,37.279000,-124.335000,12.521,32.671,NaN,NaN
20040127,013303,1837805,37.279000,-124.335000,12.521,32.672,NaN,NaN
20040127,013333,1837835,37.279000,-124.335167,12.521,32.671,NaN,NaN
20040127,013403,1837865,37.279000,-124.335333,12.521,32.671,NaN,NaN
20040127,013433,1837895,37.279167,-124.335333,12.521,32.672,NaN,NaN
20040127,013503,1837925,37.279167,-124.335667,12.520,32.671,NaN,NaN
20040127,013533,1837955,37.279167,-124.335833,12.519,32.672,NaN,NaN
20040127,013603,1837985,37.279167,-124.336000,12.519,32.672,NaN,NaN
20040127,013633,1838015,37.279167,-124.336167,12.522,32.671,NaN,NaN
20040127,013703,1838045,37.279167,-124.336167,12.522,32.672,NaN,NaN
20040127,013733,1838075,37.279167,-124.336333,12.522,32.671,NaN,NaN
20040127,013803,1838105,37.279167,-124.336333,12.520,32.671,NaN,NaN
20040127,013833,1838135,37.279167,-124.336500,12.517,32.671,NaN,NaN
20040127,013903,1838165,37.279000,-124.336833,12.516,32.671,NaN,NaN
20040127,013933,1838195,37.278833,-124.337000,12.518,32.670,NaN,NaN
20040127,014003,1838225,37.278833,-124.337167,12.516,32.671,NaN,NaN
20040127,014033,1838255,37.278667,-124.337167,12.516,32.672,NaN,NaN
20040127,014103,1838285,37.278667,-124.337333,12.517,32.671,NaN,NaN
20040127,014133,1838315,37.278667,-124.337500,12.519,32.671,NaN,NaN
20040127,014203,1838345,37.278667,-124.337500,12.519,32.672,NaN,NaN
20040127,014233,1838375,37.278667,-124.337667,12.519,32.672,NaN,NaN
20040127,014303,1838405,37.278667,-124.337667,12.519,32.672,NaN,NaN
20040127,014333,1838435,37.278500,-124.337667,12.519,32.672,NaN,NaN
20040127,014403,1838465,37.278500,-124.337667,12.518,32.673,NaN,NaN
20040127,014433,1838495,37.278500,-124.337667,12.517,32.672,NaN,NaN
20040127,014503,1838525,37.278500,-124.337667,12.516,32.672,NaN,NaN
20040127,014533,1838555,37.278333,-124.337667,12.514,32.673,NaN,NaN
20040127,014603,1838585,37.278167,-124.337667,12.514,32.673,NaN,NaN
20040127,014633,1838615,37.278167,-124.337833,12.512,32.673,NaN,NaN
20040127,014703,1838645,37.278000,-124.338000,12.513,32.674,NaN,NaN
20040127,014733,1838675,37.278000,-124.338167,12.512,32.674,NaN,NaN
20040127,014803,1838705,37.278000,-124.338333,12.512,32.674,NaN,NaN
20040127,014833,1838735,37.278167,-124.338667,12.510,32.674,NaN,NaN
20040127,014903,1838765,37.278167,-124.338833,12.510,32.673,NaN,NaN
20040127,014933,1838795,37.278167,-124.339000,12.511,32.673,NaN,NaN
20040127,015003,1838825,37.278167,-124.339000,12.511,32.673,NaN,NaN
20040127,015033,1838855,37.278167,-124.339167,12.512,32.673,NaN,NaN
20040127,015103,1838885,37.278167,-124.339167,12.513,32.672,NaN,NaN
20040127,015133,1838915,37.278167,-124.339333,12.514,32.673,NaN,NaN
20040127,015203,1838945,37.278000,-124.339500,12.513,32.674,NaN,NaN
20040127,015233,1838975,37.278000,-124.339667,12.512,32.674,NaN,NaN
20040127,015303,1839005,37.278000,-124.339667,12.512,32.673,NaN,NaN
20040127,015333,1839035,37.278000,-124.339833,12.512,32.673,NaN,NaN
20040127,015403,1839065,37.277833,-124.339833,12.511,32.674,NaN,NaN
20040127,015433,1839095,37.277667,-124.340000,12.512,32.674,NaN,NaN
20040127,015503,1839125,37.277500,-124.340000,12.512,32.675,NaN,NaN
20040127,015533,1839155,37.277500,-124.340167,12.512,32.674,NaN,NaN
20040127,015603,1839185,37.277500,-124.340167,12.513,32.675,NaN,NaN
20040127,015633,1839215,37.277500,-124.340167,12.513,32.674,NaN,NaN
20040127,015703,1839245,37.277500,-124.340333,12.514,32.673,NaN,NaN
20040127,015733,1839275,37.277500,-124.340500,12.512,32.675,NaN,NaN
20040127,015803,1839305,37.277500,-124.340667,12.514,32.675,NaN,NaN
20040127,015833,1839335,37.277500,-124.340833,12.512,32.676,NaN,NaN
20040127,015903,1839365,37.277500,-124.341000,12.513,32.675,NaN,NaN
20040127,015933,1839395,37.277500,-124.341000,12.513,32.675,NaN,NaN
20040127,020003,1839425,37.277500,-124.341167,12.514,32.675,NaN,NaN
20040127,020033,1839455,37.277667,-124.341333,12.517,32.672,NaN,NaN
20040127,020103,1839485,37.277667,-124.341667,12.518,32.675,NaN,NaN
20040127,020133,1839515,37.277500,-124.341833,12.518,32.676,NaN,NaN
20040127,020203,1839545,37.277333,-124.341667,12.516,32.677,NaN,NaN
20040127,020233,1839575,37.277167,-124.341333,12.518,32.676,NaN,NaN
20040127,020303,1839605,37.276833,-124.341000,12.520,32.677,NaN,NaN
20040127,020333,1839635,37.276667,-124.340833,12.518,32.677,NaN,NaN
20040127,020403,1839665,37.276333,-124.340667,12.518,32.678,NaN,NaN
20040127,020433,1839695,37.276000,-124.340500,12.516,32.679,NaN,NaN
20040127,020503,1839725,37.275667,-124.340333,12.515,32.679,NaN,NaN
20040127,020533,1839755,37.275167,-124.340167,12.514,32.680,NaN,NaN
20040127,020603,1839785,37.275000,-124.340000,12.516,32.679,NaN,NaN
20040127,020633,1839815,37.274667,-124.339833,12.518,32.678,NaN,NaN
20040127,020703,1839845,37.274500,-124.339500,12.517,32.679,NaN,NaN
20040127,020733,1839875,37.274500,-124.339333,12.516,32.679,NaN,NaN
20040127,020803,1839905,37.274500,-124.339167,12.514,32.679,NaN,NaN
20040127,020833,1839935,37.274333,-124.338833,12.514,32.679,NaN,NaN
20040127,020903,1839965,37.274333,-124.338667,12.512,32.681,NaN,NaN
20040127,020933,1839995,37.274333,-124.338333,12.512,32.681,NaN,NaN
20040127,021003,1840025,37.274333,-124.338167,12.512,32.682,NaN,NaN
20040127,021033,1840055,37.274333,-124.338000,12.511,32.681,NaN,NaN
20040127,021103,1840085,37.274333,-124.337667,12.512,32.680,NaN,NaN
20040127,021133,1840115,37.274333,-124.337500,12.511,32.678,NaN,NaN
20040127,021203,1840145,37.274333,-124.337167,12.510,32.678,NaN,NaN
20040127,021233,1840175,37.274500,-124.336833,12.511,32.678,NaN,NaN
20040127,021303,1840205,37.274500,-124.336667,12.512,32.678,NaN,NaN
20040127,021333,1840235,37.274500,-124.336500,12.512,32.678,NaN,NaN
20040127,021403,1840265,37.274667,-124.336167,12.510,32.679,NaN,NaN
20040127,021433,1840295,37.274667,-124.336000,12.510,32.679,NaN,NaN
20040127,021503,1840325,37.274833,-124.335833,12.512,32.678,NaN,NaN
20040127,021533,1840355,37.274833,-124.335500,12.512,32.678,NaN,NaN
20040127,021603,1840385,37.274833,-124.335333,12.510,32.678,NaN,NaN
20040127,021633,1840415,37.275000,-124.335167,12.509,32.678,NaN,NaN
20040127,021703,1840445,37.275000,-124.334833,12.509,32.677,NaN,NaN
20040127,021733,1840475,37.275000,-124.334667,12.509,32.677,NaN,NaN
20040127,021803,1840505,37.275167,-124.334500,12.509,32.678,NaN,NaN
20040127,021833,1840535,37.275167,-124.334167,12.510,32.677,NaN,NaN
20040127,021903,1840565,37.275333,-124.334000,12.511,32.677,NaN,NaN
20040127,021933,1840595,37.275500,-124.333833,12.511,32.677,NaN,NaN
20040127,022003,1840625,37.275500,-124.333667,12.512,32.677,NaN,NaN
20040127,022033,1840655,37.275667,-124.333333,12.512,32.677,NaN,NaN
20040127,022103,1840685,37.275667,-124.333167,12.511,32.677,NaN,NaN
20040127,022133,1840715,37.275833,-124.333000,12.510,32.677,NaN,NaN
20040127,022203,1840745,37.275833,-124.332833,12.510,32.676,NaN,NaN
20040127,022233,1840775,37.276000,-124.332667,12.510,32.677,NaN,NaN
20040127,022303,1840805,37.276000,-124.332500,12.510,32.677,NaN,NaN
20040127,022333,1840835,37.276000,-124.332167,12.512,32.675,NaN,NaN
20040127,022403,1840865,37.276167,-124.331833,12.512,32.676,NaN,NaN
20040127,022433,1840895,37.276167,-124.331500,12.512,32.676,NaN,NaN
20040127,022503,1840925,37.276167,-124.331167,12.511,32.677,NaN,NaN
20040127,022533,1840955,37.276167,-124.330833,12.511,32.677,NaN,NaN
20040127,022603,1840985,37.276167,-124.330500,12.511,32.677,NaN,NaN
20040127,022633,1841015,37.276167,-124.330167,12.511,32.677,NaN,NaN
20040127,022703,1841045,37.276167,-124.329833,12.512,32.677,NaN,NaN
20040127,022733,1841075,37.276333,-124.329667,12.510,32.677,NaN,NaN
20040127,022803,1841105,37.276333,-124.329333,12.511,32.677,NaN,NaN
20040127,022833,1841135,37.276333,-124.329167,12.511,32.676,NaN,NaN
20040127,022903,1841165,37.276500,-124.328833,12.510,32.677,NaN,NaN
20040127,022933,1841195,37.276500,-124.328667,12.511,32.676,NaN,NaN
20040127,023003,1841225,37.276500,-124.328500,12.511,32.677,NaN,NaN
20040127,023033,1841255,37.276667,-124.328333,12.510,32.677,NaN,NaN
20040127,023103,1841285,37.276833,-124.328167,12.510,32.677,NaN,NaN
20040127,023133,1841315,37.276833,-124.328000,12.510,32.678,NaN,NaN
20040127,023203,1841345,37.277000,-124.327833,12.509,32.679,NaN,NaN
20040127,023233,1841375,37.277167,-124.327667,12.510,32.678,NaN,NaN
20040127,023303,1841405,37.277167,-124.327500,12.510,32.679,NaN,NaN
20040127,023333,1841435,37.277333,-124.327333,12.509,32.679,NaN,NaN
20040127,023403,1841465,37.277500,-124.327000,12.509,32.678,NaN,NaN
20040127,023433,1841495,37.277500,-124.326833,12.510,32.678,NaN,NaN
20040127,023503,1841525,37.277667,-124.326667,12.509,32.677,NaN,NaN
20040127,023533,1841555,37.277667,-124.326333,12.509,32.678,NaN,NaN
20040127,023603,1841585,37.277833,-124.326333,12.507,32.679,NaN,NaN
20040127,023633,1841615,37.277833,-124.326000,12.508,32.679,NaN,NaN
20040127,023703,1841645,37.278000,-124.325833,12.508,32.679,NaN,NaN
20040127,023733,1841675,37.278167,-124.325667,12.508,32.678,NaN,NaN
20040127,023803,1841705,37.278167,-124.325500,12.508,32.677,NaN,NaN
20040127,023833,1841735,37.278333,-124.325333,12.509,32.678,NaN,NaN
20040127,023903,1841765,37.278333,-124.325167,12.509,32.677,NaN,NaN
20040127,023933,1841795,37.278500,-124.325000,12.508,32.678,NaN,NaN
20040127,024003,1841825,37.278667,-124.324833,12.508,32.679,NaN,NaN
20040127,024033,1841855,37.278667,-124.324667,12.509,32.678,NaN,NaN
20040127,024103,1841885,37.278833,-124.324500,12.509,32.678,NaN,NaN
20040127,024133,1841915,37.279000,-124.324333,12.510,32.677,NaN,NaN
20040127,024203,1841945,37.279000,-124.324167,12.511,32.677,NaN,NaN
20040127,024233,1841975,37.279167,-124.324000,12.510,32.679,NaN,NaN
20040127,024303,1842005,37.279333,-124.323833,12.511,32.679,NaN,NaN
20040127,024333,1842035,37.279500,-124.323667,12.511,32.679,NaN,NaN
20040127,024403,1842065,37.279500,-124.323500,12.511,32.679,NaN,NaN
20040127,024433,1842095,37.279667,-124.323333,12.510,32.679,NaN,NaN
20040127,024503,1842125,37.279833,-124.323333,12.510,32.679,NaN,NaN
20040127,024533,1842155,37.280000,-124.323167,12.510,32.678,NaN,NaN
20040127,024603,1842185,37.280000,-124.322833,12.510,32.678,NaN,NaN
20040127,024633,1842215,37.280167,-124.322667,12.509,32.679,NaN,NaN
20040127,024703,1842245,37.280333,-124.322500,12.510,32.679,NaN,NaN
20040127,024733,1842275,37.280500,-124.322333,12.510,32.680,NaN,NaN
20040127,024803,1842305,37.280667,-124.322333,12.511,32.680,NaN,NaN
20040127,024833,1842335,37.280833,-124.322167,12.511,32.680,NaN,NaN
20040127,024903,1842365,37.281000,-124.322167,12.511,32.680,NaN,NaN
20040127,024933,1842395,37.281167,-124.322000,12.510,32.680,NaN,NaN
20040127,025003,1842425,37.281333,-124.322000,12.511,32.679,NaN,NaN
20040127,025033,1842455,37.281500,-124.321833,12.510,32.680,NaN,NaN
20040127,025103,1842485,37.281667,-124.321667,12.511,32.680,NaN,NaN
20040127,025133,1842515,37.281667,-124.321500,12.510,32.681,NaN,NaN
20040127,025203,1842545,37.281667,-124.321167,12.510,32.681,NaN,NaN
20040127,025233,1842575,37.281333,-124.321000,12.511,32.680,NaN,NaN
20040127,025303,1842605,37.281000,-124.321333,12.511,32.680,NaN,NaN